Погода в Чисасиби

Канада     53°42′11″N   78°33′55″W
темп.,
°C
ветер,
м/с
пор.,
м/с
влажн.,
%
обл.,
%
осадки,
мм/ч
давл.,
гПа
погр.,
м
16 января, вс
вс1601:00−17ююз81795100 0.8 1007623
04:00−14ююз81693100 1.1 1004650
07:00−12ююз81592100 1.5 1002604
10:00−10ююз81492100 0.3 1001626
13:00−9ююз81494100 1.1 1000596
16:00−8ююз61095100 1.3 1000576
19:00−15зсз4896100 2.2 1003321
22:00−20зсз479669 0.2 1006277
17 января, пн
пн1701:00−31з2210029 0.2 100810
04:00−28зюз12100100 0.0 100844
07:00−25юз1295100 0.0 1009117
10:00−24зюз2490100 0.0 1009345
13:00−23зсз458499 0.0 1007558
16:00−27сз22948 0.0 100830
19:00−30сз4119752 0.0 1008194
22:00−35с1110088 0.0 100819
18 января, вт
вт1801:00−38зсз2210099 0.0 100811
04:00−38зсз22100100 0.0 100928
07:00−36юз11100100 0.0 101010
10:00−30зюз36100100 0.0 1012164
13:00−26з4592100 0.1 1013442
16:00−28зюз4795100 0.0 1015232
19:00−32ююз22100100 0.1 101631
22:00−33ююз23100100 0.0 101736
19 января, ср
ср1901:00−34ююз34100100 0.0 101747
04:00−34ю2310091 0.0 101737
07:00−34ююв22100100 0.0 101724
10:00−29ю1296100 0.0 101693
13:00−25зсз1288100 0.0 1015354
16:00−26ссз2392100 0.0 1015303
19:00−30сз369898 0.0 1016130
22:00−37сз2210094 0.0 101711
20 января, чт
чт2001:00−38зсз11100100 0.0 10179
04:00−36зюз22100100 0.0 101821
07:00−34юз24100100 0.1 101949
10:00−31зюз3799100 0.0 1020268
13:00−28зюз5691100 0.0 1020525
16:00−27зюз4894100 0.1 1022605
19:00−27зюз4895100 0.1 1023290
22:00−27юз4898100 0.0 1024210